Tracking 22879 objects as of 23-Apr-2021
HD Live streaming from Space Station
objects crossing your sky now

FLOCK 2K 37

Track FLOCK 2K 37 now!
10-day predictions
FLOCK 2K 37 is classified as:


NORAD ID: 42867
Int'l Code: 2017-042AU
Perigee: 433.3 km
Apogee: 442.6 km
Inclination: 96.9 °
Period: 93.2 minutes
Semi major axis: 6808 km
RCS: Unknown
Launch date: July 14, 2017
Source: United States (US)
Launch site: TYURATAM MISSILE AND SPACE COMPLEX (TTMTR)
aabbcc
Your satellite tracking list
Your tracking list is empty




NASA's NSSDC Master Catalog

Two Line Element Set (TLE):
1 42867U 17042AU  21112.52208718  .00008848  00000-0  18797-3 0  9994
2 42867  96.8577 329.0292 0006782 286.4943  73.5562 15.45198943211761
Source of the keplerian elements: AFSPC